Time,TemperatureF,DewpointF,PressureIn,WindDirection,WindDirectionDegrees,WindSpeedMPH,WindSpeedGustMPH,Humidity,HourlyPrecipIn,Conditions,Clouds,dailyrainin,SoftwareType,DateUTC
2013-06-20 00:00:00,70.7,64.2,29.87,SE,145,2.0,5.0,80,0.00,,,0.00,Wunderground v.1.15,2013-06-20 05:00:00,
2013-06-20 00:10:00,71.1,64.6,29.88,SSE,153,4.0,5.0,80,0.00,,,0.00,Wunderground v.1.15,2013-06-20 05:10:00,
2013-06-20 00:15:00,71.3,64.4,29.88,SE,131,4.0,5.0,79,0.00,,,0.00,Wunderground v.1.15,2013-06-20 05:15:00,
2013-06-20 00:20:00,71.3,64.4,29.88,SSE,147,4.0,4.0,79,0.00,,,0.00,Wunderground v.1.15,2013-06-20 05:20:00,
2013-06-20 00:30:00,70.5,64.0,29.88,ESE,110,2.0,3.0,80,0.00,,,0.00,Wunderground v.1.15,2013-06-20 05:30:00,
2013-06-20 00:40:00,69.9,64.2,29.88,SSE,154,2.0,3.0,82,0.00,,,0.00,Wunderground v.1.15,2013-06-20 05:40:00,
2013-06-20 00:50:00,69.6,63.9,29.88,SSE,156,3.0,3.0,82,0.00,,,0.00,Wunderground v.1.15,2013-06-20 05:50:00,
2013-06-20 01:00:00,69.2,63.8,29.88,SE,143,2.0,3.0,83,0.00,,,0.00,Wunderground v.1.15,2013-06-20 06:00:00,
2013-06-20 01:10:00,69.2,63.8,29.88,SSE,155,2.0,2.0,83,0.00,,,0.00,Wunderground v.1.15,2013-06-20 06:10:00,
2013-06-20 01:20:00,69.2,63.8,29.88,SE,132,2.0,3.0,83,0.00,,,0.00,Wunderground v.1.15,2013-06-20 06:20:00,
2013-06-20 01:30:00,69.0,63.6,29.88,SE,128,2.0,2.0,83,0.00,,,0.00,Wunderground v.1.15,2013-06-20 06:30:00,
2013-06-20 01:40:00,68.4,63.4,29.87,SE,135,2.0,3.0,84,0.00,,,0.00,Wunderground v.1.15,2013-06-20 06:40:00,
2013-06-20 01:50:00,68.0,63.3,29.87,SE,133,2.0,2.0,85,0.00,,,0.00,Wunderground v.1.15,2013-06-20 06:50:00,
2013-06-20 02:00:00,67.8,63.1,29.87,SSE,148,2.0,4.0,85,0.00,,,0.00,Wunderground v.1.15,2013-06-20 07:00:00,
2013-06-20 02:10:00,68.0,63.3,29.87,SSE,160,3.0,4.0,85,0.00,,,0.00,Wunderground v.1.15,2013-06-20 07:10:00,
2013-06-20 02:20:00,68.4,63.4,29.86,SE,143,4.0,4.0,84,0.00,,,0.00,Wunderground v.1.15,2013-06-20 07:20:00,
2013-06-20 02:30:00,68.1,63.1,29.86,SSE,148,2.0,3.0,84,0.00,,,0.00,Wunderground v.1.15,2013-06-20 07:30:00,
2013-06-20 02:40:00,68.2,63.2,29.86,SSE,165,3.0,3.0,84,0.00,,,0.00,Wunderground v.1.15,2013-06-20 07:40:00,
2013-06-20 02:45:00,68.5,63.5,29.86,SE,139,3.0,4.0,84,0.00,,,0.00,Wunderground v.1.15,2013-06-20 07:45:00,
2013-06-20 02:50:00,68.5,63.5,29.85,SE,143,4.0,4.0,84,0.00,,,0.00,Wunderground v.1.15,2013-06-20 07:50:00,
2013-06-20 03:00:00,68.3,63.3,29.85,SSE,154,3.0,3.0,84,0.00,,,0.00,Wunderground v.1.15,2013-06-20 08:00:00,
2013-06-20 03:10:00,67.9,63.2,29.85,SSE,167,3.0,4.0,85,0.00,,,0.00,Wunderground v.1.15,2013-06-20 08:10:00,
2013-06-20 03:15:00,68.4,63.7,29.86,SE,133,5.0,5.0,85,0.00,,,0.00,Wunderground v.1.15,2013-06-20 08:15:00,
2013-06-20 03:25:00,68.7,63.7,29.85,SE,139,5.0,6.0,84,0.00,,,0.00,Wunderground v.1.15,2013-06-20 08:25:00,
2013-06-20 03:35:00,68.6,63.6,29.85,SE,141,5.0,5.0,84,0.00,,,0.00,Wunderground v.1.15,2013-06-20 08:35:00,
2013-06-20 03:45:00,68.6,63.9,29.85,SE,142,5.0,5.0,85,0.00,,,0.00,Wunderground v.1.15,2013-06-20 08:45:00,
2013-06-20 03:55:00,68.3,63.6,29.85,SSE,155,4.0,4.0,85,0.00,,,0.00,Wunderground v.1.15,2013-06-20 08:55:00,
2013-06-20 04:00:00,68.0,63.7,29.85,SE,134,4.0,4.0,86,0.00,,,0.00,Wunderground v.1.15,2013-06-20 09:00:00,
2013-06-20 04:10:00,67.9,63.6,29.85,South,179,4.0,6.0,86,0.00,,,0.00,Wunderground v.1.15,2013-06-20 09:10:00,
2013-06-20 04:15:00,68.0,63.7,29.85,SSE,153,4.0,6.0,86,0.00,,,0.00,Wunderground v.1.15,2013-06-20 09:15:00,
2013-06-20 04:25:00,68.1,63.8,29.85,SSE,158,4.0,5.0,86,0.00,,,0.00,Wunderground v.1.15,2013-06-20 09:25:00,
2013-06-20 04:35:00,68.1,63.8,29.85,SSE,165,5.0,6.0,86,0.00,,,0.00,Wunderground v.1.15,2013-06-20 09:35:00,
2013-06-20 04:45:00,68.3,63.6,29.84,SSE,155,5.0,5.0,85,0.00,,,0.00,Wunderground v.1.15,2013-06-20 09:45:00,
2013-06-20 04:55:00,68.4,64.0,29.84,SSE,148,5.0,5.0,86,0.00,,,0.00,Wunderground v.1.15,2013-06-20 09:55:00,
2013-06-20 05:00:00,68.4,64.0,29.84,SE,132,5.0,5.0,86,0.00,,,0.00,Wunderground v.1.15,2013-06-20 10:00:00,
2013-06-20 05:10:00,68.8,64.1,29.84,SSE,166,6.0,8.0,85,0.00,,,0.00,Wunderground v.1.15,2013-06-20 10:10:00,
2013-06-20 05:20:00,68.9,64.2,29.84,SSE,158,6.0,6.0,85,0.00,,,0.00,Wunderground v.1.15,2013-06-20 10:20:00,
2013-06-20 05:30:00,68.9,64.2,29.84,SSE,148,6.0,6.0,85,0.00,,,0.00,Wunderground v.1.15,2013-06-20 10:30:00,
2013-06-20 05:40:00,68.8,64.4,29.84,South,169,5.0,5.0,86,0.00,,,0.00,Wunderground v.1.15,2013-06-20 10:40:00,
2013-06-20 05:50:00,68.5,64.5,29.85,SE,139,4.0,4.0,87,0.00,,,0.00,Wunderground v.1.15,2013-06-20 10:50:00,
2013-06-20 06:00:00,68.4,64.7,29.85,SE,143,4.0,4.0,88,0.00,,,0.00,Wunderground v.1.15,2013-06-20 11:00:00,
2013-06-20 06:10:00,68.4,64.7,29.85,SE,145,4.0,4.0,88,0.00,,,0.00,Wunderground v.1.15,2013-06-20 11:10:00,
2013-06-20 06:20:00,68.6,64.9,29.85,SSE,160,5.0,6.0,88,0.00,,,0.00,Wunderground v.1.15,2013-06-20 11:20:00,
2013-06-20 06:30:00,69.0,65.0,29.85,SE,143,6.0,6.0,87,0.00,,,0.00,Wunderground v.1.15,2013-06-20 11:30:00,
2013-06-20 06:40:00,69.2,65.2,29.85,SE,137,5.0,5.0,87,0.00,,,0.00,Wunderground v.1.15,2013-06-20 11:40:00,
2013-06-20 06:50:00,69.4,65.4,29.84,SE,146,6.0,7.0,87,0.00,,,0.00,Wunderground v.1.15,2013-06-20 11:50:00,
2013-06-20 07:00:00,69.7,65.7,29.84,SE,145,7.0,9.0,87,0.00,,,0.00,Wunderground v.1.15,2013-06-20 12:00:00,
2013-06-20 07:10:00,70.0,66.0,29.84,SSE,147,7.0,7.0,87,0.00,,,0.00,Wunderground v.1.15,2013-06-20 12:10:00,
2013-06-20 07:20:00,70.4,66.0,29.84,SSE,166,8.0,9.0,86,0.00,,,0.00,Wunderground v.1.15,2013-06-20 12:20:00,
2013-06-20 07:25:00,70.6,66.2,29.83,SE,143,9.0,11.0,86,0.00,,,0.00,Wunderground v.1.15,2013-06-20 12:25:00,
2013-06-20 07:35:00,71.0,66.6,29.83,SE,136,10.0,14.0,86,0.00,,,0.00,Wunderground v.1.15,2013-06-20 12:35:00,
2013-06-20 07:45:00,71.5,66.8,29.83,South,173,9.0,9.0,85,0.00,,,0.00,Wunderground v.1.15,2013-06-20 12:45:00,
2013-06-20 07:55:00,71.8,67.0,29.83,SE,139,9.0,9.0,85,0.00,,,0.00,Wunderground v.1.15,2013-06-20 12:55:00,
2013-06-20 08:00:00,72.0,66.9,29.83,SE,141,9.0,11.0,84,0.00,,,0.00,Wunderground v.1.15,2013-06-20 13:00:00,
2013-06-20 08:05:00,72.1,67.0,29.82,SSE,166,10.0,11.0,84,0.00,,,0.00,Wunderground v.1.15,2013-06-20 13:05:00,
2013-06-20 08:15:00,73.1,67.6,29.82,SSE,155,10.0,12.0,83,0.00,,,0.00,Wunderground v.1.15,2013-06-20 13:15:00,
2013-06-20 08:25:00,74.1,68.3,29.83,SE,139,11.0,11.0,82,0.00,,,0.00,Wunderground v.1.15,2013-06-20 13:25:00,
2013-06-20 08:35:00,74.4,68.2,29.82,South,172,11.0,12.0,81,0.00,,,0.00,Wunderground v.1.15,2013-06-20 13:35:00,
2013-06-20 08:45:00,75.5,68.9,29.82,SSE,155,10.0,14.0,80,0.00,,,0.00,Wunderground v.1.15,2013-06-20 13:45:00,
2013-06-20 08:55:00,75.3,68.7,29.82,SSE,158,12.0,14.0,80,0.00,,,0.00,Wunderground v.1.15,2013-06-20 13:55:00,
2013-06-20 09:00:00,75.9,69.3,29.82,SE,133,13.0,14.0,80,0.00,,,0.00,Wunderground v.1.15,2013-06-20 14:00:00,
2013-06-20 09:10:00,76.9,69.5,29.82,SSE,163,13.0,13.0,78,0.00,,,0.00,Wunderground v.1.15,2013-06-20 14:10:00,
2013-06-20 09:20:00,77.2,69.4,29.81,SSE,150,14.0,14.0,77,0.00,,,0.00,Wunderground v.1.15,2013-06-20 14:20:00,
2013-06-20 09:30:00,77.8,70.0,29.81,SSE,153,15.0,15.0,77,0.00,,,0.00,Wunderground v.1.15,2013-06-20 14:30:00,
2013-06-20 09:40:00,78.4,70.2,29.81,SE,144,12.0,12.0,76,0.00,,,0.00,Wunderground v.1.15,2013-06-20 14:40:00,
2013-06-20 09:50:00,79.2,71.4,29.81,SSE,155,12.0,12.0,77,0.00,,,0.00,Wunderground v.1.15,2013-06-20 14:50:00,
2013-06-20 09:55:00,79.7,71.5,29.81,South,174,12.0,16.0,76,0.00,,,0.00,Wunderground v.1.15,2013-06-20 14:55:00,
2013-06-20 10:00:00,80.1,71.5,29.81,South,172,13.0,13.0,75,0.00,,,0.00,Wunderground v.1.15,2013-06-20 15:00:00,
2013-06-20 10:10:00,80.9,71.8,29.80,South,173,13.0,13.0,74,0.00,,,0.00,Wunderground v.1.15,2013-06-20 15:10:00,
2013-06-20 10:20:00,81.2,71.7,29.81,SSE,148,16.0,16.0,73,0.00,,,0.00,Wunderground v.1.15,2013-06-20 15:20:00,
2013-06-20 10:30:00,82.1,72.2,29.80,South,169,13.0,13.0,72,0.00,,,0.00,Wunderground v.1.15,2013-06-20 15:30:00,
2013-06-20 10:40:00,82.3,72.0,29.80,SSW,193,16.0,21.0,71,0.00,,,0.00,Wunderground v.1.15,2013-06-20 15:40:00,
2013-06-20 10:50:00,82.6,72.2,29.80,SSW,211,16.0,16.0,71,0.00,,,0.00,Wunderground v.1.15,2013-06-20 15:50:00,
2013-06-20 11:00:00,82.7,71.5,29.80,South,180,17.0,17.0,69,0.00,,,0.00,Wunderground v.1.15,2013-06-20 16:00:00,
2013-06-20 11:10:00,83.3,72.1,29.80,SSE,159,15.0,18.0,69,0.00,,,0.00,Wunderground v.1.15,2013-06-20 16:10:00,
2013-06-20 11:15:00,83.3,72.1,29.80,SSW,194,16.0,21.0,69,0.00,,,0.00,Wunderground v.1.15,2013-06-20 16:15:00,
2013-06-20 11:25:00,83.8,72.5,29.80,SSE,161,15.0,17.0,69,0.00,,,0.00,Wunderground v.1.15,2013-06-20 16:25:00,
2013-06-20 11:35:00,84.2,72.5,29.80,South,179,13.0,14.0,68,0.00,,,0.00,Wunderground v.1.15,2013-06-20 16:35:00,
2013-06-20 11:45:00,84.5,72.8,29.79,South,176,14.0,14.0,68,0.00,,,0.00,Wunderground v.1.15,2013-06-20 16:45:00,
2013-06-20 11:55:00,85.1,72.9,29.79,SSE,152,13.0,14.0,67,0.00,,,0.00,Wunderground v.1.15,2013-06-20 16:55:00,
2013-06-20 12:00:00,85.3,72.6,29.79,South,172,13.0,13.0,66,0.00,,,0.00,Wunderground v.1.15,2013-06-20 17:00:00,
2013-06-20 12:10:00,85.7,73.9,29.80,South,169,13.0,13.0,68,0.00,,,0.00,Wunderground v.1.15,2013-06-20 17:10:00,
2013-06-20 12:20:00,85.8,73.6,29.79,South,173,13.0,16.0,67,0.00,,,0.00,Wunderground v.1.15,2013-06-20 17:20:00,
2013-06-20 12:25:00,86.5,74.2,29.79,SSE,156,14.0,21.0,67,0.00,,,0.00,Wunderground v.1.15,2013-06-20 17:25:00,
2013-06-20 12:35:00,86.3,73.6,29.78,SE,143,16.0,21.0,66,0.00,,,0.00,Wunderground v.1.15,2013-06-20 17:35:00,
2013-06-20 12:45:00,86.4,74.1,29.78,SSE,162,16.0,19.0,67,0.00,,,0.00,Wunderground v.1.15,2013-06-20 17:45:00,
2013-06-20 12:55:00,86.5,73.3,29.77,SSE,152,17.0,17.0,65,0.00,,,0.00,Wunderground v.1.15,2013-06-20 17:55:00,
2013-06-20 13:00:00,86.3,73.6,29.77,SSE,150,15.0,24.0,66,0.00,,,0.00,Wunderground v.1.15,2013-06-20 18:00:00,
2013-06-20 13:10:00,87.1,75.3,29.77,SSE,164,16.0,16.0,68,0.00,,,0.00,Wunderground v.1.15,2013-06-20 18:10:00,
2013-06-20 13:20:00,87.4,73.7,29.76,South,188,17.0,19.0,64,0.00,,,0.00,Wunderground v.1.15,2013-06-20 18:20:00,
2013-06-20 13:30:00,87.3,74.1,29.76,SSE,150,16.0,16.0,65,0.00,,,0.00,Wunderground v.1.15,2013-06-20 18:30:00,
2013-06-20 13:40:00,87.4,73.3,29.76,SSE,163,15.0,15.0,63,0.00,,,0.00,Wunderground v.1.15,2013-06-20 18:40:00,
2013-06-20 13:45:00,87.6,73.9,29.76,South,172,14.0,15.0,64,0.00,,,0.00,Wunderground v.1.15,2013-06-20 18:45:00,
2013-06-20 13:55:00,87.9,74.2,29.76,SSW,193,15.0,19.0,64,0.00,,,0.00,Wunderground v.1.15,2013-06-20 18:55:00,
2013-06-20 14:00:00,87.4,73.7,29.76,SSW,200,15.0,15.0,64,0.00,,,0.00,Wunderground v.1.15,2013-06-20 19:00:00,
2013-06-20 14:10:00,88.1,74.8,29.75,South,169,15.0,20.0,65,0.00,,,0.00,Wunderground v.1.15,2013-06-20 19:10:00,
2013-06-20 14:20:00,88.6,74.4,29.75,SSW,194,16.0,17.0,63,0.00,,,0.00,Wunderground v.1.15,2013-06-20 19:20:00,
2013-06-20 14:30:00,88.7,74.5,29.75,SSE,167,15.0,15.0,63,0.00,,,0.00,Wunderground v.1.15,2013-06-20 19:30:00,
2013-06-20 14:40:00,87.8,74.6,29.74,SSE,163,17.0,17.0,65,0.00,,,0.00,Wunderground v.1.15,2013-06-20 19:40:00,
2013-06-20 14:45:00,88.1,73.9,29.74,SSW,205,17.0,19.0,63,0.00,,,0.00,Wunderground v.1.15,2013-06-20 19:45:00,
2013-06-20 14:55:00,88.3,74.6,29.73,SSE,153,17.0,23.0,64,0.00,,,0.00,Wunderground v.1.15,2013-06-20 19:55:00,
2013-06-20 15:00:00,88.8,76.0,29.74,South,184,17.0,17.0,66,0.00,,,0.00,Wunderground v.1.15,2013-06-20 20:00:00,
2013-06-20 15:10:00,89.2,75.0,29.73,SSE,164,16.0,17.0,63,0.00,,,0.00,Wunderground v.1.15,2013-06-20 20:10:00,
2013-06-20 15:20:00,89.2,74.5,29.73,South,173,17.0,18.0,62,0.00,,,0.00,Wunderground v.1.15,2013-06-20 20:20:00,
2013-06-20 15:30:00,89.3,74.1,29.73,South,172,17.0,18.0,61,0.00,,,0.00,Wunderground v.1.15,2013-06-20 20:30:00,
2013-06-20 15:40:00,89.2,74.0,29.73,South,173,16.0,17.0,61,0.00,,,0.00,Wunderground v.1.15,2013-06-20 20:40:00,
2013-06-20 15:50:00,89.9,75.6,29.73,SSE,167,16.0,16.0,63,0.00,,,0.00,Wunderground v.1.15,2013-06-20 20:50:00,
2013-06-20 15:55:00,90.1,74.8,29.72,SSE,158,15.0,16.0,61,0.00,,,0.00,Wunderground v.1.15,2013-06-20 20:55:00,
2013-06-20 16:00:00,89.9,74.2,29.72,SE,142,14.0,15.0,60,0.00,,,0.00,Wunderground v.1.15,2013-06-20 21:00:00,
2013-06-20 16:10:00,89.5,74.3,29.72,SSE,150,16.0,20.0,61,0.00,,,0.00,Wunderground v.1.15,2013-06-20 21:10:00,
2013-06-20 16:20:00,88.9,73.7,29.72,South,176,17.0,19.0,61,0.00,,,0.00,Wunderground v.1.15,2013-06-20 21:20:00,
2013-06-20 16:30:00,88.9,74.2,29.73,South,172,15.0,15.0,62,0.00,,,0.00,Wunderground v.1.15,2013-06-20 21:30:00,
2013-06-20 16:40:00,88.8,74.1,29.73,South,176,15.0,21.0,62,0.00,,,0.00,Wunderground v.1.15,2013-06-20 21:40:00,
2013-06-20 16:45:00,89.0,74.3,29.73,SSE,148,15.0,21.0,62,0.00,,,0.00,Wunderground v.1.15,2013-06-20 21:45:00,
2013-06-20 16:55:00,88.9,74.2,29.74,SE,146,13.0,15.0,62,0.00,,,0.00,Wunderground v.1.15,2013-06-20 21:55:00,
2013-06-20 17:00:00,89.3,74.6,29.74,South,173,12.0,17.0,62,0.00,,,0.00,Wunderground v.1.15,2013-06-20 22:00:00,
2013-06-20 17:10:00,88.5,74.8,29.74,SSW,207,13.0,13.0,64,0.00,,,0.00,Wunderground v.1.15,2013-06-20 22:10:00,
2013-06-20 17:20:00,88.4,74.2,29.74,South,176,12.0,13.0,63,0.00,,,0.00,Wunderground v.1.15,2013-06-20 22:20:00,
2013-06-20 17:25:00,88.4,74.2,29.74,South,190,13.0,13.0,63,0.00,,,0.00,Wunderground v.1.15,2013-06-20 22:25:00,
2013-06-20 17:35:00,87.9,74.2,29.74,SSE,166,13.0,13.0,64,0.00,,,0.00,Wunderground v.1.15,2013-06-20 22:35:00,
2013-06-20 17:45:00,87.7,74.5,29.73,SSE,148,11.0,20.0,65,0.00,,,0.00,Wunderground v.1.15,2013-06-20 22:45:00,
2013-06-20 17:50:00,87.9,74.7,29.73,South,169,12.0,19.0,65,0.00,,,0.00,Wunderground v.1.15,2013-06-20 22:50:00,
2013-06-20 18:00:00,87.9,75.1,29.73,SE,135,11.0,15.0,66,0.00,,,0.00,Wunderground v.1.15,2013-06-20 23:00:00,
2013-06-20 18:10:00,88.8,75.0,29.72,SSE,164,15.0,15.0,64,0.00,,,0.00,Wunderground v.1.15,2013-06-20 23:10:00,
2013-06-20 18:20:00,89.0,75.2,29.71,SE,143,13.0,13.0,64,0.00,,,0.00,Wunderground v.1.15,2013-06-20 23:20:00,
2013-06-20 18:30:00,88.7,74.5,29.72,SE,139,14.0,14.0,63,0.00,,,0.00,Wunderground v.1.15,2013-06-20 23:30:00,
2013-06-20 18:40:00,88.4,75.6,29.72,South,171,11.0,14.0,66,0.00,,,0.00,Wunderground v.1.15,2013-06-20 23:40:00,
2013-06-20 18:50:00,88.5,75.2,29.72,South,170,12.0,12.0,65,0.00,,,0.00,Wunderground v.1.15,2013-06-20 23:50:00,
2013-06-20 18:55:00,88.5,74.3,29.72,SSE,158,12.0,13.0,63,0.00,,,0.00,Wunderground v.1.15,2013-06-20 23:55:00,
2013-06-20 19:00:00,88.6,74.4,29.72,SSE,165,13.0,14.0,63,0.00,,,0.00,Wunderground v.1.15,2013-06-21 00:00:00,
2013-06-20 19:10:00,88.4,74.7,29.72,SSE,158,11.0,17.0,64,0.00,,,0.00,Wunderground v.1.15,2013-06-21 00:10:00,
2013-06-20 19:20:00,87.9,74.7,29.71,SSE,164,12.0,12.0,65,0.00,,,0.00,Wunderground v.1.15,2013-06-21 00:20:00,
2013-06-20 19:30:00,87.5,74.7,29.72,SSE,165,10.0,10.0,66,0.00,,,0.00,Wunderground v.1.15,2013-06-21 00:30:00,
2013-06-20 19:40:00,87.2,74.5,29.72,South,181,10.0,10.0,66,0.00,,,0.00,Wunderground v.1.15,2013-06-21 00:40:00,
2013-06-20 19:50:00,86.9,74.2,29.72,South,177,10.0,11.0,66,0.00,,,0.00,Wunderground v.1.15,2013-06-21 00:50:00,
2013-06-20 20:00:00,86.8,74.5,29.72,SSE,158,11.0,11.0,67,0.00,,,0.00,Wunderground v.1.15,2013-06-21 01:00:00,
2013-06-20 20:10:00,86.4,74.1,29.72,South,183,10.0,10.0,67,0.00,,,0.00,Wunderground v.1.15,2013-06-21 01:10:00,
2013-06-20 20:15:00,86.3,74.5,29.72,South,174,9.0,10.0,68,0.00,,,0.00,Wunderground v.1.15,2013-06-21 01:15:00,
2013-06-20 20:25:00,86.0,74.2,29.72,SSE,158,8.0,15.0,68,0.00,,,0.00,Wunderground v.1.15,2013-06-21 01:25:00,
2013-06-20 20:35:00,86.1,74.3,29.73,South,170,10.0,10.0,68,0.00,,,0.00,Wunderground v.1.15,2013-06-21 01:35:00,
2013-06-20 20:45:00,85.8,74.0,29.73,SSE,167,9.0,9.0,68,0.00,,,0.00,Wunderground v.1.15,2013-06-21 01:45:00,
2013-06-20 20:50:00,85.6,73.8,29.73,SSE,160,10.0,10.0,68,0.00,,,0.00,Wunderground v.1.15,2013-06-21 01:50:00,
2013-06-20 21:00:00,85.5,73.7,29.73,South,190,12.0,12.0,68,0.00,,,0.00,Wunderground v.1.15,2013-06-21 02:00:00,
2013-06-20 21:10:00,85.5,73.7,29.74,SSW,193,12.0,12.0,68,0.00,,,0.00,Wunderground v.1.15,2013-06-21 02:10:00,
2013-06-20 21:15:00,85.5,73.7,29.74,SE,141,11.0,12.0,68,0.00,,,0.00,Wunderground v.1.15,2013-06-21 02:15:00,
2013-06-20 21:20:00,85.3,73.5,29.74,SSE,155,11.0,11.0,68,0.00,,,0.00,Wunderground v.1.15,2013-06-21 02:20:00,
2013-06-20 21:30:00,85.2,73.9,29.74,SSE,158,11.0,14.0,69,0.00,,,0.00,Wunderground v.1.15,2013-06-21 02:30:00,
2013-06-20 21:35:00,85.1,73.8,29.75,SE,139,12.0,14.0,69,0.00,,,0.00,Wunderground v.1.15,2013-06-21 02:35:00,
2013-06-20 21:45:00,84.9,73.6,29.75,SSE,158,12.0,15.0,69,0.00,,,0.00,Wunderground v.1.15,2013-06-21 02:45:00,
2013-06-20 21:55:00,84.7,73.4,29.75,SSE,164,12.0,12.0,69,0.00,,,0.00,Wunderground v.1.15,2013-06-21 02:55:00,
2013-06-20 22:00:00,84.4,73.5,29.75,South,174,11.0,11.0,70,0.00,,,0.00,Wunderground v.1.15,2013-06-21 03:00:00,
2013-06-20 22:10:00,84.3,73.4,29.76,SSW,195,12.0,14.0,70,0.00,,,0.00,Wunderground v.1.15,2013-06-21 03:10:00,
2013-06-20 22:20:00,84.0,73.6,29.76,SSE,150,11.0,11.0,71,0.00,,,0.00,Wunderground v.1.15,2013-06-21 03:20:00,
2013-06-20 22:30:00,84.0,73.6,29.76,SSE,156,11.0,11.0,71,0.00,,,0.00,Wunderground v.1.15,2013-06-21 03:30:00,
2013-06-20 22:40:00,83.8,73.8,29.76,South,181,10.0,10.0,72,0.00,,,0.00,Wunderground v.1.15,2013-06-21 03:40:00,
2013-06-20 22:50:00,83.6,73.6,29.77,SW,222,11.0,15.0,72,0.00,,,0.00,Wunderground v.1.15,2013-06-21 03:50:00,
2013-06-20 23:00:00,83.4,73.8,29.76,South,169,12.0,12.0,73,0.00,,,0.00,Wunderground v.1.15,2013-06-21 04:00:00,
2013-06-20 23:05:00,83.1,73.5,29.77,South,172,11.0,12.0,73,0.00,,,0.00,Wunderground v.1.15,2013-06-21 04:05:00,
2013-06-20 23:10:00,83.0,73.9,29.77,South,176,10.0,11.0,74,0.00,,,0.00,Wunderground v.1.15,2013-06-21 04:10:00,
2013-06-20 23:15:00,83.0,73.9,29.77,SSE,155,11.0,11.0,74,0.00,,,0.00,Wunderground v.1.15,2013-06-21 04:15:00,
2013-06-20 23:25:00,82.8,73.7,29.77,SSE,156,11.0,12.0,74,0.00,,,0.00,Wunderground v.1.15,2013-06-21 04:25:00,
2013-06-20 23:35:00,82.5,73.8,29.77,SSE,162,10.0,11.0,75,0.00,,,0.00,Wunderground v.1.15,2013-06-21 04:35:00,
2013-06-20 23:45:00,82.2,73.9,29.77,SSE,167,11.0,16.0,76,0.00,,,0.00,Wunderground v.1.15,2013-06-21 04:45:00,
2013-06-20 23:50:00,82.3,74.0,29.77,SSE,165,12.0,12.0,76,0.00,,,0.00,Wunderground v.1.15,2013-06-21 04:50:00,